スパール彗星

171P/Spahr (2005)

English version
Home page
Updated on March 18, 2012

---------------------------------------------------------------------

・ プロフィール

符号 171P/2005 R3
検出日 2005年9月7日
検出光度 17.3等、17.2等
検出者 F. Fratev and E. Mihaylova (Zvezdno Obshtestvo Obsevatory), E. J. Christensen (Catalina)

・ 写真集

・ 軌道要素

Epoch 2005 Aug. 18.0 TT = JDT 2453600.5
T 2005 Sept. 3.21788 TT                                 MPC
q   1.7296773            (2000.0)            P               Q
n   0.14885284     Peri.  346.84357     +0.00543246     -0.93067475
a   3.5261271      Node   101.91975     +0.94798994     -0.11163002
e   0.5094683      Incl.   21.95441     +0.31825394     +0.34840099
P   6.62
From 316 observations 1998 Nov. 13-2012 Mar. 13, mean residual 0".7.
     Nongravitational parameters A1 = +0.11, A2 = -0.1803.

・ 星図

・ 光度変化

        m1 = 9.5 + 5 logΔ + 25 log r

---------------------------------------------------------------------

軌道要素はM.P.E.C. 2012-F11に掲載されたものです。
星図は StellaNavigator Ver.2.0 for Windows (アストロアーツ 編著 / アスキー出版局刊) で作成したものです。
光度グラフはComet for Windowsで作成したものです。

---------------------------------------------------------------------

Copyright(C) Seiichi Yoshida (comet@aerith.net). All rights reserved.